Wetterdaten: Samstag, 12.09.2015
Datum Zeit Auen-Temp. Temp gefhlt Luftfeuchte Luftdruck Regen Wind Richtung Richtung Taupunkt Windben
12.09.2015 00:00 8,9 C 8,7 C 88 % 1018,4 hPa 0,0 mm 0,0 km/h (0 Bft) O-SO 112 7,0 C 0,0 km/h (0 Bft)
12.09.2015 00:05 8,9 C 8,7 C 88 % 1018,4 hPa 0,0 mm 0,0 km/h (0 Bft) O-SO 112 7,0 C 0,0 km/h (0 Bft)
12.09.2015 00:10 9,1 C 8,9 C 88 % 1018,4 hPa 0,0 mm 0,0 km/h (0 Bft) O-SO 112 7,2 C 0,0 km/h (0 Bft)
12.09.2015 00:15 9,0 C 8,9 C 88 % 1018,5 hPa 0,0 mm 0,0 km/h (0 Bft) O-SO 112 7,1 C 0,0 km/h (0 Bft)
12.09.2015 00:20 9,2 C 9,0 C 88 % 1018,5 hPa 0,0 mm 0,0 km/h (0 Bft) O-NO 67 7,3 C 0,0 km/h (0 Bft)
12.09.2015 00:25 9,2 C 9,1 C 88 % 1018,5 hPa 0,0 mm 0,0 km/h (0 Bft) O-NO 67 7,3 C 0,0 km/h (0 Bft)
12.09.2015 00:30 9,2 C 9,1 C 88 % 1018,5 hPa 0,0 mm 0,0 km/h (0 Bft) W-SW 247 7,3 C 0,0 km/h (0 Bft)
12.09.2015 00:35 9,5 C 9,3 C 89 % 1018,6 hPa 0,0 mm 1,0 km/h (0 Bft) SW 225 7,8 C 14,2 km/h (3 Bft)
12.09.2015 00:40 10,0 C 9,8 C 89 % 1018,6 hPa 0,0 mm 3,6 km/h (1 Bft) S 180 8,3 C 7,3 km/h (2 Bft)
12.09.2015 00:45 10,0 C 9,9 C 89 % 1018,6 hPa 0,0 mm 3,6 km/h (1 Bft) SO 135 8,3 C 0,0 km/h (0 Bft)
12.09.2015 00:50 10,0 C 9,9 C 89 % 1018,6 hPa 0,0 mm 0,8 km/h (0 Bft) O-NO 67 8,3 C 0,0 km/h (0 Bft)
12.09.2015 00:55 10,1 C 10,0 C 89 % 1018,4 hPa 0,0 mm 0,0 km/h (0 Bft) SW 225 8,4 C 0,0 km/h (0 Bft)
12.09.2015 01:00 10,3 C 10,2 C 89 % 1018,4 hPa 0,0 mm 1,3 km/h (1 Bft) SW 225 8,6 C 4,9 km/h (1 Bft)
12.09.2015 01:05 10,3 C 10,2 C 89 % 1018,4 hPa 0,0 mm 1,6 km/h (1 Bft) SW 225 8,6 C 0,0 km/h (0 Bft)
12.09.2015 01:10 10,1 C 10,0 C 89 % 1018,4 hPa 0,0 mm 0,3 km/h (0 Bft) SW 225 8,4 C 0,0 km/h (0 Bft)
12.09.2015 01:15 10,0 C 9,9 C 88 % 1018,5 hPa 0,0 mm 0,0 km/h (0 Bft) O-NO 67 8,1 C 0,0 km/h (0 Bft)
12.09.2015 01:20 10,1 C 9,8 C 89 % 1018,5 hPa 0,0 mm 0,3 km/h (0 Bft) O-SO 112 8,4 C 0,0 km/h (0 Bft)
12.09.2015 01:25 9,8 C 9,6 C 89 % 1018,5 hPa 0,0 mm 0,0 km/h (0 Bft) O-NO 67 8,1 C 0,0 km/h (0 Bft)
12.09.2015 01:30 9,4 C 9,2 C 88 % 1018,5 hPa 0,0 mm 0,0 km/h (0 Bft) O-NO 67 7,5 C 0,0 km/h (0 Bft)
12.09.2015 01:35 9,3 C 9,1 C 88 % 1018,4 hPa 0,0 mm 0,0 km/h (0 Bft) O-NO 67 7,4 C 0,0 km/h (0 Bft)
12.09.2015 01:40 9,2 C 9,0 C 88 % 1018,4 hPa 0,0 mm 0,0 km/h (0 Bft) O 90 7,3 C 0,0 km/h (0 Bft)
12.09.2015 01:45 9,6 C 9,3 C 88 % 1018,4 hPa 0,0 mm 0,0 km/h (0 Bft) O 90 7,7 C 0,0 km/h (0 Bft)
12.09.2015 01:50 9,6 C 9,4 C 88 % 1018,4 hPa 0,0 mm 0,0 km/h (0 Bft) O 90 7,7 C 0,0 km/h (0 Bft)
12.09.2015 01:55 9,6 C 9,5 C 88 % 1018,2 hPa 0,0 mm 0,0 km/h (0 Bft) N-NO 22 7,7 C 0,0 km/h (0 Bft)
12.09.2015 02:00 9,8 C 9,6 C 88 % 1018,2 hPa 0,0 mm 0,0 km/h (0 Bft) O-NO 67 7,9 C 0,0 km/h (0 Bft)
12.09.2015 02:05 9,7 C 9,6 C 88 % 1018,2 hPa 0,0 mm 0,0 km/h (0 Bft) O-NO 67 7,8 C 0,0 km/h (0 Bft)
12.09.2015 02:10 9,8 C 9,6 C 88 % 1018,2 hPa 0,0 mm 0,0 km/h (0 Bft) O-NO 67 7,9 C 0,0 km/h (0 Bft)
12.09.2015 02:15 9,9 C 9,7 C 89 % 1018,2 hPa 0,0 mm 0,0 km/h (0 Bft) O-NO 67 8,2 C 0,0 km/h (0 Bft)
12.09.2015 02:20 9,9 C 9,7 C 89 % 1018,2 hPa 0,0 mm 0,0 km/h (0 Bft) O-NO 67 8,2 C 0,0 km/h (0 Bft)
12.09.2015 02:25 9,9 C 9,8 C 85 % 1018,2 hPa 0,0 mm 0,0 km/h (0 Bft) O-NO 67 7,5 C 0,0 km/h (0 Bft)
12.09.2015 02:30 10,2 C 10,0 C 88 % 1018,2 hPa 0,0 mm 0,0 km/h (0 Bft) W-SW 247 8,3 C 0,0 km/h (0 Bft)
12.09.2015 02:35 10,3 C 10,1 C 88 % 1017,9 hPa 0,0 mm 0,0 km/h (0 Bft) S 180 8,4 C 0,0 km/h (0 Bft)
12.09.2015 02:40 10,2 C 10,0 C 88 % 1017,9 hPa 0,0 mm 0,0 km/h (0 Bft) S 180 8,3 C 0,0 km/h (0 Bft)
12.09.2015 02:45 10,1 C 9,9 C 88 % 1017,9 hPa 0,0 mm 0,0 km/h (0 Bft) S 180 8,2 C 0,0 km/h (0 Bft)
12.09.2015 02:50 10,1 C 9,9 C 88 % 1017,9 hPa 0,0 mm 0,0 km/h (0 Bft) S 180 8,2 C 0,0 km/h (0 Bft)
12.09.2015 02:55 10,2 C 10,0 C 88 % 1017,9 hPa 0,0 mm 0,0 km/h (0 Bft) S 180 8,3 C 0,0 km/h (0 Bft)
12.09.2015 03:00 10,3 C 10,1 C 88 % 1017,9 hPa 0,0 mm 0,0 km/h (0 Bft) S 180 8,4 C 0,0 km/h (0 Bft)
12.09.2015 03:05 10,3 C 10,1 C 87 % 1017,9 hPa 0,0 mm 0,0 km/h (0 Bft) S 180 8,2 C 0,0 km/h (0 Bft)
12.09.2015 03:10 10,2 C 10,0 C 87 % 1017,9 hPa 0,0 mm 0,0 km/h (0 Bft) S 180 8,1 C 0,0 km/h (0 Bft)
12.09.2015 03:15 10,4 C 10,2 C 87 % 1017,6 hPa 0,0 mm 0,0 km/h (0 Bft) S 180 8,3 C 0,0 km/h (0 Bft)
12.09.2015 03:20 10,4 C 10,2 C 87 % 1017,6 hPa 0,0 mm 0,0 km/h (0 Bft) S-SW 202 8,3 C 0,0 km/h (0 Bft)
12.09.2015 03:25 10,6 C 10,4 C 86 % 1017,6 hPa 0,0 mm 0,0 km/h (0 Bft) S 180 8,4 C 0,0 km/h (0 Bft)
12.09.2015 03:30 10,5 C 10,4 C 86 % 1017,6 hPa 0,0 mm 0,0 km/h (0 Bft) S 180 8,3 C 0,0 km/h (0 Bft)
12.09.2015 03:35 10,5 C 10,4 C 86 % 1017,6 hPa 0,0 mm 0,0 km/h (0 Bft) W 270 8,3 C 0,0 km/h (0 Bft)
12.09.2015 03:40 10,6 C 10,6 C 86 % 1017,6 hPa 0,0 mm 0,0 km/h (0 Bft) SO 135 8,4 C 0,0 km/h (0 Bft)
12.09.2015 03:45 10,5 C 10,5 C 86 % 1017,6 hPa 0,0 mm 0,0 km/h (0 Bft) SO 135 8,3 C 0,0 km/h (0 Bft)
12.09.2015 03:50 10,5 C 10,6 C 85 % 1017,6 hPa 0,0 mm 0,0 km/h (0 Bft) SO 135 8,1 C 0,0 km/h (0 Bft)
12.09.2015 03:55 10,6 C 10,6 C 85 % 1017,6 hPa 0,0 mm 0,0 km/h (0 Bft) SO 135 8,2 C 0,0 km/h (0 Bft)
12.09.2015 04:00 10,5 C 10,6 C 85 % 1017,6 hPa 0,0 mm 0,0 km/h (0 Bft) SO 135 8,1 C 0,0 km/h (0 Bft)
12.09.2015 04:03 10,2 C 10,5 C 84 % 1017,6 hPa 0,0 mm 0,0 km/h (0 Bft) SO 135 7,6 C 0,0 km/h (0 Bft)
12.09.2015 04:05 10,2 C 10,5 C 84 % 1017,6 hPa 0,0 mm 0,0 km/h (0 Bft) SO 135 7,6 C 0,0 km/h (0 Bft)
12.09.2015 04:10 9,9 C 10,2 C 84 % 1017,6 hPa 0,0 mm 0,0 km/h (0 Bft) N-NO 22 7,3 C 0,0 km/h (0 Bft)
12.09.2015 04:15 9,9 C 10,0 C 84 % 1017,8 hPa 0,0 mm 0,0 km/h (0 Bft) N-NO 22 7,3 C 0,0 km/h (0 Bft)
12.09.2015 04:20 9,4 C 9,5 C 84 % 1017,8 hPa 0,0 mm 0,0 km/h (0 Bft) NO 45 6,8 C 0,0 km/h (0 Bft)
12.09.2015 04:25 9,3 C 9,3 C 84 % 1017,8 hPa 0,0 mm 0,0 km/h (0 Bft) NO 45 6,7 C 0,0 km/h (0 Bft)
12.09.2015 04:30 9,5 C 9,3 C 84 % 1017,8 hPa 0,0 mm 0,0 km/h (0 Bft) O-NO 67 6,9 C 0,0 km/h (0 Bft)
12.09.2015 04:35 9,4 C 9,2 C 84 % 1017,8 hPa 0,0 mm 0,0 km/h (0 Bft) O 90 6,8 C 0,0 km/h (0 Bft)
12.09.2015 04:40 9,3 C 9,1 C 85 % 1017,8 hPa 0,0 mm 0,0 km/h (0 Bft) S 180 6,9 C 0,0 km/h (0 Bft)
12.09.2015 04:45 9,5 C 9,3 C 85 % 1017,8 hPa 0,0 mm 1,3 km/h (1 Bft) NW 315 7,1 C 3,9 km/h (1 Bft)
12.09.2015 04:50 9,4 C 9,2 C 85 % 1017,8 hPa 0,0 mm 1,3 km/h (1 Bft) SW 225 7,0 C 0,0 km/h (0 Bft)
12.09.2015 04:55 9,6 C 9,4 C 85 % 1017,9 hPa 0,0 mm 0,5 km/h (0 Bft) SW 225 7,2 C 0,0 km/h (0 Bft)
12.09.2015 05:00 9,3 C 9,2 C 85 % 1017,9 hPa 0,0 mm 0,5 km/h (0 Bft) S-SW 202 6,9 C 9,6 km/h (2 Bft)
12.09.2015 05:05 10,0 C 9,8 C 85 % 1017,9 hPa 0,0 mm 2,3 km/h (1 Bft) S-SW 202 7,6 C 6,2 km/h (2 Bft)
12.09.2015 05:10 10,1 C 10,0 C 84 % 1017,9 hPa 0,0 mm 3,6 km/h (1 Bft) S-SW 202 7,5 C 0,0 km/h (0 Bft)
12.09.2015 05:15 10,3 C 10,2 C 84 % 1018,0 hPa 0,0 mm 3,4 km/h (1 Bft) S-SO 157 7,7 C 0,0 km/h (0 Bft)
12.09.2015 05:20 10,1 C 10,1 C 83 % 1018,0 hPa 0,0 mm 3,6 km/h (1 Bft) W-SW 247 7,3 C 0,0 km/h (0 Bft)
12.09.2015 05:25 9,7 C 10,0 C 83 % 1018,0 hPa 0,0 mm 2,6 km/h (1 Bft) S 180 7,0 C 0,0 km/h (0 Bft)
12.09.2015 05:30 9,3 C 9,5 C 83 % 1018,0 hPa 0,0 mm 0,8 km/h (0 Bft) S 180 6,6 C 0,0 km/h (0 Bft)
12.09.2015 05:35 8,9 C 9,1 C 83 % 1017,9 hPa 0,0 mm 0,0 km/h (0 Bft) W 270 6,2 C 0,0 km/h (0 Bft)
12.09.2015 05:40 8,8 C 8,8 C 83 % 1017,9 hPa 0,0 mm 0,0 km/h (0 Bft) S 180 6,1 C 0,0 km/h (0 Bft)
12.09.2015 05:45 8,8 C 8,7 C 83 % 1017,9 hPa 0,0 mm 0,0 km/h (0 Bft) S 180 6,1 C 0,0 km/h (0 Bft)
12.09.2015 05:50 8,6 C 8,5 C 83 % 1017,9 hPa 0,0 mm 0,0 km/h (0 Bft) S 180 5,9 C 0,0 km/h (0 Bft)
12.09.2015 05:55 8,4 C 8,4 C 83 % 1017,8 hPa 0,0 mm 0,0 km/h (0 Bft) W-NW 292 5,7 C 0,0 km/h (0 Bft)
12.09.2015 06:00 8,6 C 8,5 C 84 % 1017,8 hPa 0,0 mm 0,0 km/h (0 Bft) W-NW 292 6,1 C 0,0 km/h (0 Bft)
12.09.2015 06:05 8,6 C 8,5 C 84 % 1017,8 hPa 0,0 mm 0,0 km/h (0 Bft) W-NW 292 6,1 C 0,0 km/h (0 Bft)
12.09.2015 06:10 8,6 C 8,4 C 84 % 1017,8 hPa 0,0 mm 0,0 km/h (0 Bft) W 270 6,1 C 0,0 km/h (0 Bft)
12.09.2015 06:15 8,7 C 8,5 C 84 % 1017,8 hPa 0,0 mm 0,0 km/h (0 Bft) W-NW 292 6,2 C 0,0 km/h (0 Bft)
12.09.2015 06:20 8,6 C 8,4 C 84 % 1017,8 hPa 0,0 mm 0,0 km/h (0 Bft) W-SW 247 6,1 C 0,0 km/h (0 Bft)
12.09.2015 06:25 8,8 C 8,6 C 84 % 1017,8 hPa 0,0 mm 0,0 km/h (0 Bft) O 90 6,2 C 0,0 km/h (0 Bft)
12.09.2015 06:30 8,6 C 8,4 C 84 % 1017,8 hPa 0,0 mm 0,0 km/h (0 Bft) NO 45 6,1 C 0,0 km/h (0 Bft)
12.09.2015 06:35 8,3 C 8,2 C 84 % 1017,9 hPa 0,0 mm 0,0 km/h (0 Bft) NW 315 5,8 C 0,0 km/h (0 Bft)
12.09.2015 06:40 8,2 C 8,1 C 84 % 1017,9 hPa 0,0 mm 0,0 km/h (0 Bft) N 360 5,7 C 0,0 km/h (0 Bft)
12.09.2015 06:45 8,1 C 8,0 C 84 % 1017,9 hPa 0,0 mm 0,0 km/h (0 Bft) N 360 5,6 C 0,0 km/h (0 Bft)
12.09.2015 06:50 8,2 C 8,1 C 84 % 1017,9 hPa 0,0 mm 0,0 km/h (0 Bft) N 360 5,7 C 0,0 km/h (0 Bft)
12.09.2015 06:55 8,3 C 8,2 C 85 % 1018,1 hPa 0,0 mm 0,0 km/h (0 Bft) N 360 5,9 C 0,0 km/h (0 Bft)
12.09.2015 07:00 8,7 C 8,6 C 85 % 1018,1 hPa 0,0 mm 0,0 km/h (0 Bft) N-NW 337 6,3 C 0,0 km/h (0 Bft)
12.09.2015 07:05 8,7 C 8,7 C 85 % 1018,1 hPa 0,0 mm 0,0 km/h (0 Bft) N-NO 22 6,3 C 0,0 km/h (0 Bft)
12.09.2015 07:10 8,9 C 8,9 C 85 % 1018,1 hPa 0,0 mm 0,0 km/h (0 Bft) N-NO 22 6,5 C 0,0 km/h (0 Bft)
12.09.2015 07:15 8,8 C 8,8 C 84 % 1018,2 hPa 0,0 mm 0,0 km/h (0 Bft) NW 315 6,2 C 0,0 km/h (0 Bft)
12.09.2015 07:20 8,8 C 8,9 C 84 % 1018,2 hPa 0,0 mm 0,0 km/h (0 Bft) W-NW 292 6,2 C 0,0 km/h (0 Bft)
12.09.2015 07:25 8,6 C 8,8 C 84 % 1018,2 hPa 0,0 mm 0,0 km/h (0 Bft) NW 315 6,1 C 0,0 km/h (0 Bft)
12.09.2015 07:30 8,4 C 8,7 C 83 % 1018,2 hPa 0,0 mm 0,0 km/h (0 Bft) W-NW 292 5,7 C 0,0 km/h (0 Bft)
12.09.2015 07:35 8,6 C 8,7 C 84 % 1018,2 hPa 0,0 mm 0,0 km/h (0 Bft) NW 315 6,1 C 0,0 km/h (0 Bft)
12.09.2015 07:40 8,6 C 8,7 C 84 % 1018,2 hPa 0,0 mm 0,0 km/h (0 Bft) W-NW 292 6,1 C 0,0 km/h (0 Bft)
12.09.2015 07:45 8,8 C 8,8 C 84 % 1018,2 hPa 0,0 mm 0,0 km/h (0 Bft) W-SW 247 6,2 C 0,0 km/h (0 Bft)
12.09.2015 07:50 9,0 C 9,3 C 84 % 1018,2 hPa 0,0 mm 0,0 km/h (0 Bft) NW 315 6,4 C 0,0 km/h (0 Bft)
12.09.2015 07:55 9,2 C 9,6 C 84 % 1018,4 hPa 0,0 mm 0,0 km/h (0 Bft) NW 315 6,6 C 0,0 km/h (0 Bft)
12.09.2015 08:00 9,5 C 10,1 C 84 % 1018,4 hPa 0,0 mm 0,0 km/h (0 Bft) N-NW 337 6,9 C 0,0 km/h (0 Bft)
12.09.2015 08:05 9,8 C 10,6 C 83 % 1018,4 hPa 0,0 mm 0,0 km/h (0 Bft) N-NW 337 7,1 C 0,0 km/h (0 Bft)
12.09.2015 08:10 10,2 C 11,3 C 83 % 1018,4 hPa 0,0 mm 0,0 km/h (0 Bft) N-NW 337 7,4 C 0,0 km/h (0 Bft)
12.09.2015 08:15 10,7 C 13,2 C 79 % 1018,4 hPa 0,0 mm 0,0 km/h (0 Bft) N-NW 337 7,2 C 0,0 km/h (0 Bft)
12.09.2015 08:20 11,5 C 16,1 C 78 % 1018,4 hPa 0,0 mm 0,0 km/h (0 Bft) N-NW 337 7,8 C 0,0 km/h (0 Bft)
12.09.2015 08:25 12,0 C 17,9 C 77 % 1018,4 hPa 0,0 mm 0,0 km/h (0 Bft) N-NW 337 8,1 C 0,0 km/h (0 Bft)
12.09.2015 08:30 12,0 C 18,4 C 76 % 1018,4 hPa 0,0 mm 0,0 km/h (0 Bft) N-NW 337 7,9 C 0,0 km/h (0 Bft)
12.09.2015 08:35 12,0 C 19,4 C 76 % 1018,4 hPa 0,0 mm 0,0 km/h (0 Bft) N-NW 337 7,9 C 0,0 km/h (0 Bft)
12.09.2015 08:40 12,3 C 21,2 C 75 % 1018,4 hPa 0,0 mm 0,0 km/h (0 Bft) N-NW 337 8,0 C 0,0 km/h (0 Bft)
12.09.2015 08:45 13,1 C 22,5 C 75 % 1018,4 hPa 0,0 mm 0,0 km/h (0 Bft) N-NW 337 8,8 C 0,0 km/h (0 Bft)
12.09.2015 08:50 13,7 C 21,3 C 74 % 1018,4 hPa 0,0 mm 0,0 km/h (0 Bft) N-NW 337 9,2 C 0,0 km/h (0 Bft)
12.09.2015 08:55 13,9 C 20,2 C 75 % 1018,6 hPa 0,0 mm 0,0 km/h (0 Bft) N-NW 337 9,5 C 0,0 km/h (0 Bft)
12.09.2015 09:00 14,1 C 19,0 C 75 % 1018,6 hPa 0,0 mm 0,0 km/h (0 Bft) N-NW 337 9,7 C 0,0 km/h (0 Bft)
12.09.2015 09:05 14,1 C 18,4 C 74 % 1018,6 hPa 0,0 mm 0,0 km/h (0 Bft) N-NW 337 9,5 C 0,0 km/h (0 Bft)
12.09.2015 09:10 14,3 C 18,0 C 74 % 1018,6 hPa 0,0 mm 0,0 km/h (0 Bft) N-NW 337 9,7 C 0,0 km/h (0 Bft)
12.09.2015 09:15 15,0 C 19,2 C 74 % 1018,6 hPa 0,0 mm 0,0 km/h (0 Bft) N-NW 337 10,4 C 0,0 km/h (0 Bft)
12.09.2015 09:20 15,3 C 19,5 C 73 % 1018,6 hPa 0,0 mm 0,0 km/h (0 Bft) N-NW 337 10,5 C 0,0 km/h (0 Bft)
12.09.2015 09:25 15,4 C 19,3 C 73 % 1018,6 hPa 0,0 mm 0,0 km/h (0 Bft) N-NW 337 10,6 C 0,0 km/h (0 Bft)
12.09.2015 09:30 15,5 C 19,0 C 72 % 1018,6 hPa 0,0 mm 0,0 km/h (0 Bft) N-NW 337 10,5 C 0,0 km/h (0 Bft)
12.09.2015 09:35 15,6 C 18,9 C 71 % 1018,9 hPa 0,0 mm 0,0 km/h (0 Bft) N-NW 337 10,4 C 0,0 km/h (0 Bft)
12.09.2015 09:40 15,9 C 19,2 C 71 % 1018,9 hPa 0,0 mm 0,0 km/h (0 Bft) N-NW 337 10,6 C 0,0 km/h (0 Bft)
12.09.2015 09:45 16,0 C 19,2 C 70 % 1018,9 hPa 0,0 mm 0,0 km/h (0 Bft) N-NW 337 10,5 C 0,0 km/h (0 Bft)
12.09.2015 09:50 16,3 C 19,3 C 70 % 1018,9 hPa 0,0 mm 0,0 km/h (0 Bft) N-NW 337 10,8 C 0,0 km/h (0 Bft)
12.09.2015 09:55 16,4 C 19,3 C 70 % 1019,0 hPa 0,0 mm 0,0 km/h (0 Bft) N-NW 337 10,9 C 2,6 km/h (1 Bft)
12.09.2015 10:00 16,4 C 19,6 C 70 % 1019,0 hPa 0,0 mm 0,0 km/h (0 Bft) N-NW 337 10,9 C 0,0 km/h (0 Bft)
12.09.2015 10:04 16,5 C 19,6 C 70 % 1019,0 hPa 0,0 mm 0,0 km/h (0 Bft) N-NW 337 11,0 C 0,0 km/h (0 Bft)
12.09.2015 10:05 16,5 C 19,6 C 70 % 1019,0 hPa 0,0 mm 0,0 km/h (0 Bft) N-NW 337 11,0 C 0,0 km/h (0 Bft)
12.09.2015 10:10 16,8 C 19,8 C 70 % 1019,0 hPa 0,0 mm 0,0 km/h (0 Bft) N-NW 337 11,3 C 0,0 km/h (0 Bft)
12.09.2015 10:15 17,1 C 20,0 C 69 % 1019,1 hPa 0,0 mm 1,0 km/h (0 Bft) N-NW 337 11,4 C 6,5 km/h (2 Bft)
12.09.2015 10:20 17,1 C 20,6 C 67 % 1019,1 hPa 0,0 mm 2,8 km/h (1 Bft) N-NW 337 10,9 C 0,0 km/h (0 Bft)
12.09.2015 10:25 17,7 C 21,5 C 66 % 1019,1 hPa 0,0 mm 2,3 km/h (1 Bft) N-NW 337 11,3 C 0,0 km/h (0 Bft)
12.09.2015 10:30 18,1 C 23,6 C 65 % 1019,1 hPa 0,0 mm 1,3 km/h (1 Bft) N-NW 337 11,4 C 0,0 km/h (0 Bft)
12.09.2015 10:35 18,2 C 22,9 C 66 % 1019,2 hPa 0,0 mm 1,3 km/h (1 Bft) N-NW 337 11,7 C 0,0 km/h (0 Bft)
12.09.2015 10:40 19,1 C 24,9 C 66 % 1019,2 hPa 0,0 mm 0,0 km/h (0 Bft) N-NW 337 12,6 C 0,0 km/h (0 Bft)
12.09.2015 10:45 19,5 C 25,9 C 65 % 1019,2 hPa 0,0 mm 0,0 km/h (0 Bft) N-NW 337 12,7 C 0,0 km/h (0 Bft)
12.09.2015 10:50 20,4 C 27,3 C 65 % 1019,2 hPa 0,0 mm 0,0 km/h (0 Bft) N-NW 337 13,6 C 0,0 km/h (0 Bft)
12.09.2015 10:55 20,6 C 27,7 C 63 % 1019,6 hPa 0,0 mm 0,5 km/h (0 Bft) N-NW 337 13,3 C 6,0 km/h (2 Bft)
12.09.2015 11:00 20,5 C 27,9 C 62 % 1019,6 hPa 0,0 mm 0,5 km/h (0 Bft) N-NW 337 13,0 C 0,0 km/h (0 Bft)
12.09.2015 11:05 20,4 C 27,9 C 61 % 1019,6 hPa 0,0 mm 0,8 km/h (0 Bft) N-NW 337 12,6 C 4,1 km/h (1 Bft)
12.09.2015 11:10 20,7 C 27,2 C 59 % 1019,6 hPa 0,0 mm 2,3 km/h (1 Bft) N-NW 337 12,4 C 7,0 km/h (2 Bft)
12.09.2015 11:15 20,6 C 26,4 C 59 % 1020,2 hPa 0,0 mm 4,7 km/h (1 Bft) N-NW 337 12,3 C 4,7 km/h (1 Bft)
12.09.2015 11:20 20,3 C 25,7 C 58 % 1020,2 hPa 0,0 mm 7,0 km/h (2 Bft) N 360 11,8 C 9,8 km/h (2 Bft)
12.09.2015 11:25 20,4 C 25,6 C 57 % 1020,2 hPa 0,0 mm 6,7 km/h (2 Bft) N-NW 337 11,6 C 9,6 km/h (2 Bft)
12.09.2015 11:30 21,1 C 26,2 C 58 % 1020,2 hPa 0,0 mm 4,4 km/h (1 Bft) N 360 12,5 C 7,5 km/h (2 Bft)
12.09.2015 11:35 21,1 C 26,2 C 58 % 1020,4 hPa 0,0 mm 3,6 km/h (1 Bft) O-NO 67 12,5 C 4,7 km/h (1 Bft)
12.09.2015 11:40 21,2 C 26,0 C 58 % 1020,4 hPa 0,0 mm 5,2 km/h (1 Bft) O-SO 112 12,6 C 6,5 km/h (2 Bft)
12.09.2015 11:45 21,2 C 26,3 C 57 % 1020,4 hPa 0,0 mm 5,2 km/h (1 Bft) O-SO 112 12,3 C 8,5 km/h (2 Bft)
12.09.2015 11:50 21,2 C 26,3 C 56 % 1020,4 hPa 0,0 mm 4,7 km/h (1 Bft) O-NO 67 12,1 C 2,6 km/h (1 Bft)
12.09.2015 11:55 21,5 C 26,7 C 56 % 1020,5 hPa 0,0 mm 4,1 km/h (1 Bft) O-SO 112 12,3 C 4,4 km/h (1 Bft)
12.09.2015 12:00 21,2 C 26,8 C 54 % 1020,5 hPa 0,0 mm 4,1 km/h (1 Bft) O-NO 67 11,5 C 7,5 km/h (2 Bft)
12.09.2015 12:05 21,4 C 26,8 C 53 % 1020,5 hPa 0,0 mm 4,7 km/h (1 Bft) O-NO 67 11,4 C 0,0 km/h (0 Bft)
12.09.2015 12:10 21,7 C 27,4 C 53 % 1020,5 hPa 0,0 mm 3,6 km/h (1 Bft) S-SO 157 11,7 C 9,3 km/h (2 Bft)
12.09.2015 12:15 21,6 C 27,0 C 52 % 1020,5 hPa 0,0 mm 3,6 km/h (1 Bft) NO 45 11,3 C 3,1 km/h (1 Bft)
12.09.2015 12:20 21,9 C 27,2 C 53 % 1020,5 hPa 0,0 mm 5,7 km/h (1 Bft) O-SO 112 11,9 C 17,3 km/h (3 Bft)
12.09.2015 12:25 21,8 C 26,8 C 52 % 1020,5 hPa 0,0 mm 6,7 km/h (2 Bft) SO 135 11,5 C 11,9 km/h (2 Bft)
12.09.2015 12:30 22,2 C 26,8 C 53 % 1020,5 hPa 0,0 mm 6,5 km/h (2 Bft) O-NO 67 12,2 C 22,3 km/h (4 Bft)
12.09.2015 12:35 22,0 C 26,4 C 51 % 1020,4 hPa 0,0 mm 7,3 km/h (2 Bft) NO 45 11,4 C 8,5 km/h (2 Bft)
12.09.2015 12:40 21,8 C 26,2 C 49 % 1020,4 hPa 0,0 mm 8,8 km/h (2 Bft) O-NO 67 10,6 C 13,2 km/h (3 Bft)
12.09.2015 12:45 21,8 C 25,8 C 49 % 1020,4 hPa 0,0 mm 9,6 km/h (2 Bft) O-NO 67 10,6 C 17,3 km/h (3 Bft)
12.09.2015 12:50 22,1 C 25,7 C 51 % 1020,4 hPa 0,0 mm 8,0 km/h (2 Bft) O-SO 112 11,5 C 3,9 km/h (1 Bft)
12.09.2015 12:55 22,5 C 25,8 C 49 % 1020,2 hPa 0,0 mm 6,2 km/h (2 Bft) N-NW 337 11,2 C 9,8 km/h (2 Bft)
12.09.2015 13:00 22,8 C 25,4 C 51 % 1020,2 hPa 0,0 mm 4,9 km/h (1 Bft) N-NO 22 12,1 C 10,6 km/h (2 Bft)
12.09.2015 13:05 22,7 C 24,8 C 49 % 1020,2 hPa 0,0 mm 5,7 km/h (1 Bft) O-NO 67 11,4 C 10,9 km/h (2 Bft)
12.09.2015 13:10 22,4 C 24,1 C 48 % 1020,2 hPa 0,0 mm 7,5 km/h (2 Bft) NO 45 10,8 C 6,0 km/h (2 Bft)
12.09.2015 13:15 22,4 C 24,0 C 48 % 1020,1 hPa 0,0 mm 8,3 km/h (2 Bft) N-NO 22 10,8 C 6,5 km/h (2 Bft)
12.09.2015 13:20 22,6 C 24,9 C 49 % 1020,1 hPa 0,0 mm 6,7 km/h (2 Bft) O-NO 67 11,3 C 12,2 km/h (2 Bft)
12.09.2015 13:25 22,7 C 25,7 C 49 % 1020,1 hPa 0,0 mm 6,0 km/h (2 Bft) O-NO 67 11,4 C 16,6 km/h (3 Bft)
12.09.2015 13:30 22,7 C 26,6 C 51 % 1020,1 hPa 0,0 mm 5,7 km/h (1 Bft) NO 45 12,0 C 5,7 km/h (1 Bft)
12.09.2015 13:35 22,9 C 27,1 C 49 % 1020,1 hPa 0,0 mm 5,7 km/h (1 Bft) O-NO 67 11,6 C 6,2 km/h (2 Bft)
12.09.2015 13:40 22,8 C 27,3 C 49 % 1020,1 hPa 0,0 mm 6,0 km/h (2 Bft) O-SO 112 11,5 C 2,6 km/h (1 Bft)
12.09.2015 13:45 22,9 C 27,5 C 49 % 1020,1 hPa 0,0 mm 6,0 km/h (2 Bft) O-NO 67 11,6 C 10,1 km/h (2 Bft)
12.09.2015 13:50 22,9 C 27,0 C 48 % 1020,1 hPa 0,0 mm 7,5 km/h (2 Bft) O-NO 67 11,3 C 6,0 km/h (2 Bft)
12.09.2015 13:55 23,0 C 27,4 C 47 % 1019,9 hPa 0,0 mm 6,7 km/h (2 Bft) NW 315 11,1 C 6,5 km/h (2 Bft)
12.09.2015 14:00 23,1 C 27,8 C 47 % 1019,9 hPa 0,0 mm 5,4 km/h (1 Bft) O-NO 67 11,2 C 6,7 km/h (2 Bft)
12.09.2015 14:05 23,3 C 27,8 C 46 % 1019,9 hPa 0,0 mm 6,7 km/h (2 Bft) NO 45 11,0 C 7,0 km/h (2 Bft)
12.09.2015 14:10 23,4 C 27,9 C 47 % 1019,9 hPa 0,0 mm 5,4 km/h (1 Bft) NO 45 11,4 C 0,0 km/h (0 Bft)
12.09.2015 14:15 23,5 C 28,2 C 47 % 1019,4 hPa 0,0 mm 4,4 km/h (1 Bft) O-SO 112 11,5 C 6,7 km/h (2 Bft)
12.09.2015 14:20 23,2 C 28,1 C 46 % 1019,4 hPa 0,0 mm 4,7 km/h (1 Bft) N-NO 22 10,9 C 2,8 km/h (1 Bft)
12.09.2015 14:25 23,3 C 27,8 C 45 % 1019,4 hPa 0,0 mm 6,7 km/h (2 Bft) NO 45 10,7 C 11,1 km/h (2 Bft)
12.09.2015 14:30 23,4 C 27,5 C 46 % 1019,4 hPa 0,0 mm 7,5 km/h (2 Bft) N-NW 337 11,1 C 4,9 km/h (1 Bft)
12.09.2015 14:35 23,6 C 27,7 C 45 % 1019,0 hPa 0,0 mm 7,0 km/h (2 Bft) NO 45 11,0 C 9,1 km/h (2 Bft)
12.09.2015 14:40 23,5 C 27,8 C 45 % 1019,0 hPa 0,0 mm 5,7 km/h (1 Bft) SO 135 10,9 C 2,8 km/h (1 Bft)
12.09.2015 14:45 23,6 C 27,8 C 44 % 1019,0 hPa 0,0 mm 6,5 km/h (2 Bft) O-SO 112 10,6 C 10,1 km/h (2 Bft)
12.09.2015 14:50 23,4 C 27,7 C 44 % 1019,0 hPa 0,0 mm 6,2 km/h (2 Bft) N-NO 22 10,4 C 7,8 km/h (2 Bft)
12.09.2015 14:55 23,5 C 27,7 C 46 % 1018,5 hPa 0,0 mm 6,2 km/h (2 Bft) S 180 11,2 C 0,0 km/h (0 Bft)
12.09.2015 15:00 23,8 C 28,1 C 45 % 1018,5 hPa 0,0 mm 6,0 km/h (2 Bft) N-NO 22 11,1 C 7,0 km/h (2 Bft)
12.09.2015 15:05 23,7 C 28,2 C 45 % 1018,5 hPa 0,0 mm 5,2 km/h (1 Bft) O-SO 112 11,1 C 4,4 km/h (1 Bft)
12.09.2015 15:10 23,6 C 28,0 C 45 % 1018,5 hPa 0,0 mm 6,0 km/h (2 Bft) N-NW 337 11,0 C 7,8 km/h (2 Bft)
12.09.2015 15:15 23,8 C 28,0 C 46 % 1018,2 hPa 0,0 mm 6,0 km/h (2 Bft) NO 45 11,5 C 7,8 km/h (2 Bft)
12.09.2015 15:20 23,8 C 27,8 C 46 % 1018,2 hPa 0,0 mm 6,2 km/h (2 Bft) NO 45 11,5 C 8,8 km/h (2 Bft)
12.09.2015 15:25 23,9 C 28,0 C 45 % 1018,2 hPa 0,0 mm 6,0 km/h (2 Bft) NO 45 11,2 C 12,2 km/h (2 Bft)
12.09.2015 15:30 23,6 C 27,8 C 44 % 1018,2 hPa 0,0 mm 6,7 km/h (2 Bft) NO 45 10,6 C 8,3 km/h (2 Bft)
12.09.2015 15:35 23,5 C 27,6 C 44 % 1017,9 hPa 0,0 mm 7,8 km/h (2 Bft) O-NO 67 10,5 C 15,3 km/h (3 Bft)
12.09.2015 15:40 23,6 C 27,3 C 45 % 1017,9 hPa 0,0 mm 8,3 km/h (2 Bft) NO 45 11,0 C 9,1 km/h (2 Bft)
12.09.2015 15:45 23,6 C 27,3 C 45 % 1017,9 hPa 0,0 mm 8,3 km/h (2 Bft) O-NO 67 11,0 C 12,7 km/h (3 Bft)
12.09.2015 15:50 23,6 C 27,3 C 45 % 1017,9 hPa 0,0 mm 7,8 km/h (2 Bft) NO 45 11,0 C 17,6 km/h (3 Bft)
12.09.2015 15:55 23,7 C 27,2 C 44 % 1017,6 hPa 0,0 mm 7,8 km/h (2 Bft) N-NO 22 10,7 C 7,3 km/h (2 Bft)
12.09.2015 16:00 23,7 C 27,3 C 44 % 1017,6 hPa 0,0 mm 8,0 km/h (2 Bft) N 360 10,7 C 7,8 km/h (2 Bft)
12.09.2015 16:05 23,6 C 27,4 C 44 % 1017,6 hPa 0,0 mm 7,8 km/h (2 Bft) N-NO 22 10,6 C 12,7 km/h (3 Bft)
12.09.2015 16:10 23,4 C 27,3 C 45 % 1017,6 hPa 0,0 mm 8,0 km/h (2 Bft) O-NO 67 10,8 C 9,8 km/h (2 Bft)
12.09.2015 16:15 23,4 C 27,1 C 44 % 1017,4 hPa 0,0 mm 8,0 km/h (2 Bft) N-NW 337 10,4 C 7,8 km/h (2 Bft)
12.09.2015 16:20 23,5 C 27,3 C 45 % 1017,4 hPa 0,0 mm 5,7 km/h (1 Bft) S 180 10,9 C 2,8 km/h (1 Bft)
12.09.2015 16:25 23,3 C 27,6 C 45 % 1017,4 hPa 0,0 mm 6,0 km/h (2 Bft) N 360 10,7 C 11,1 km/h (2 Bft)
12.09.2015 16:30 22,9 C 27,2 C 45 % 1017,4 hPa 0,0 mm 7,3 km/h (2 Bft) N 360 10,3 C 10,9 km/h (2 Bft)
12.09.2015 16:35 22,8 C 27,2 C 46 % 1017,2 hPa 0,0 mm 7,0 km/h (2 Bft) NO 45 10,6 C 5,2 km/h (1 Bft)
12.09.2015 16:40 22,7 C 27,1 C 46 % 1017,2 hPa 0,0 mm 6,0 km/h (2 Bft) N-NO 22 10,5 C 7,8 km/h (2 Bft)
12.09.2015 16:45 22,6 C 26,0 C 46 % 1017,2 hPa 0,0 mm 6,2 km/h (2 Bft) N-NO 22 10,4 C 5,4 km/h (1 Bft)
12.09.2015 16:50 22,4 C 24,2 C 46 % 1017,2 hPa 0,0 mm 7,3 km/h (2 Bft) N-NO 22 10,2 C 11,7 km/h (2 Bft)
12.09.2015 16:55 22,3 C 23,6 C 47 % 1017,1 hPa 0,0 mm 6,5 km/h (2 Bft) O-SO 112 10,4 C 0,0 km/h (0 Bft)
12.09.2015 17:00 22,1 C 23,0 C 48 % 1017,1 hPa 0,0 mm 4,4 km/h (1 Bft) O-NO 67 10,6 C 2,6 km/h (1 Bft)
12.09.2015 17:05 22,0 C 23,0 C 49 % 1017,1 hPa 0,0 mm 3,9 km/h (1 Bft) O-NO 67 10,8 C 8,5 km/h (2 Bft)
12.09.2015 17:10 22,1 C 22,8 C 49 % 1017,1 hPa 0,0 mm 3,9 km/h (1 Bft) O 90 10,9 C 0,0 km/h (0 Bft)
12.09.2015 17:15 22,0 C 22,8 C 49 % 1016,9 hPa 0,0 mm 5,2 km/h (1 Bft) O-NO 67 10,8 C 4,4 km/h (1 Bft)
12.09.2015 17:20 21,9 C 22,6 C 49 % 1016,9 hPa 0,0 mm 6,0 km/h (2 Bft) NO 45 10,7 C 13,5 km/h (3 Bft)
12.09.2015 17:25 21,8 C 22,4 C 49 % 1016,9 hPa 0,0 mm 6,2 km/h (2 Bft) NO 45 10,6 C 8,3 km/h (2 Bft)
12.09.2015 17:30 21,4 C 22,2 C 52 % 1016,9 hPa 0,0 mm 5,2 km/h (1 Bft) O-SO 112 11,1 C 6,2 km/h (2 Bft)
12.09.2015 17:35 21,3 C 22,2 C 52 % 1016,9 hPa 0,0 mm 2,8 km/h (1 Bft) NO 45 11,0 C 4,9 km/h (1 Bft)
12.09.2015 17:40 21,2 C 22,1 C 52 % 1016,9 hPa 0,0 mm 1,0 km/h (0 Bft) O-NO 67 10,9 C 0,0 km/h (0 Bft)
12.09.2015 17:45 21,1 C 21,9 C 52 % 1016,9 hPa 0,0 mm 1,3 km/h (1 Bft) O-NO 67 10,9 C 3,1 km/h (1 Bft)
12.09.2015 17:50 20,9 C 21,7 C 52 % 1016,9 hPa 0,0 mm 1,6 km/h (1 Bft) O-NO 67 10,7 C 6,7 km/h (2 Bft)
12.09.2015 17:55 20,8 C 21,6 C 52 % 1016,9 hPa 0,0 mm 1,6 km/h (1 Bft) NO 45 10,6 C 5,4 km/h (1 Bft)
12.09.2015 18:00 20,5 C 21,4 C 53 % 1016,9 hPa 0,0 mm 2,6 km/h (1 Bft) NO 45 10,6 C 12,4 km/h (3 Bft)
12.09.2015 18:05 20,4 C 21,3 C 53 % 1016,9 hPa 0,0 mm 3,4 km/h (1 Bft) N-NO 22 10,5 C 12,4 km/h (3 Bft)
12.09.2015 18:10 20,2 C 21,2 C 54 % 1016,9 hPa 0,0 mm 3,6 km/h (1 Bft) SO 135 10,6 C 0,0 km/h (0 Bft)
12.09.2015 18:15 20,1 C 20,9 C 54 % 1016,7 hPa 0,0 mm 2,3 km/h (1 Bft) S-SO 157 10,5 C 0,0 km/h (0 Bft)
12.09.2015 18:20 19,8 C 20,5 C 55 % 1016,7 hPa 0,0 mm 0,8 km/h (0 Bft) O-NO 67 10,5 C 3,4 km/h (1 Bft)
12.09.2015 18:25 19,5 C 20,1 C 55 % 1016,7 hPa 0,0 mm 1,3 km/h (1 Bft) S 180 10,2 C 4,4 km/h (1 Bft)
12.09.2015 18:30 19,3 C 19,7 C 55 % 1016,7 hPa 0,0 mm 1,3 km/h (1 Bft) SO 135 10,0 C 3,6 km/h (1 Bft)
12.09.2015 18:35 18,7 C 19,3 C 56 % 1016,8 hPa 0,0 mm 0,8 km/h (0 Bft) O-SO 112 9,7 C 0,0 km/h (0 Bft)
12.09.2015 18:40 18,9 C 18,9 C 57 % 1016,8 hPa 0,0 mm 0,0 km/h (0 Bft) SO 135 10,2 C 0,0 km/h (0 Bft)
12.09.2015 18:45 18,9 C 18,9 C 58 % 1016,8 hPa 0,0 mm 0,0 km/h (0 Bft) S-SO 157 10,5 C 0,0 km/h (0 Bft)
12.09.2015 18:50 18,9 C 18,9 C 58 % 1016,8 hPa 0,0 mm 0,0 km/h (0 Bft) SO 135 10,5 C 0,0 km/h (0 Bft)
12.09.2015 18:55 18,9 C 18,9 C 58 % 1016,7 hPa 0,0 mm 0,3 km/h (0 Bft) O-SO 112 10,5 C 3,9 km/h (1 Bft)
12.09.2015 19:00 18,8 C 18,8 C 59 % 1016,7 hPa 0,0 mm 0,3 km/h (0 Bft) S-SO 157 10,6 C 0,0 km/h (0 Bft)
12.09.2015 19:05 18,7 C 18,7 C 59 % 1016,7 hPa 0,0 mm 0,8 km/h (0 Bft) S-SO 157 10,5 C 3,6 km/h (1 Bft)
12.09.2015 19:10 18,2 C 18,5 C 61 % 1016,7 hPa 0,0 mm 0,5 km/h (0 Bft) S-SO 157 10,6 C 0,0 km/h (0 Bft)
12.09.2015 19:15 17,9 C 18,3 C 62 % 1016,6 hPa 0,0 mm 0,5 km/h (0 Bft) S-SO 157 10,5 C 2,8 km/h (1 Bft)
12.09.2015 19:20 17,6 C 18,1 C 64 % 1016,6 hPa 0,0 mm 0,5 km/h (0 Bft) SO 135 10,7 C 0,0 km/h (0 Bft)
12.09.2015 19:25 16,6 C 17,7 C 64 % 1016,6 hPa 0,0 mm 0,5 km/h (0 Bft) S 180 9,8 C 0,0 km/h (0 Bft)
12.09.2015 19:30 16,0 C 16,7 C 66 % 1016,6 hPa 0,0 mm 0,0 km/h (0 Bft) S 180 9,7 C 0,0 km/h (0 Bft)
12.09.2015 19:35 16,0 C 16,3 C 68 % 1016,5 hPa 0,0 mm 0,0 km/h (0 Bft) S-SO 157 10,1 C 0,0 km/h (0 Bft)
12.09.2015 19:40 16,1 C 16,4 C 69 % 1016,5 hPa 0,0 mm 0,0 km/h (0 Bft) S-SO 157 10,4 C 0,0 km/h (0 Bft)
12.09.2015 19:45 15,8 C 16,0 C 69 % 1016,5 hPa 0,0 mm 0,0 km/h (0 Bft) O-SO 112 10,1 C 0,0 km/h (0 Bft)
12.09.2015 19:50 15,3 C 15,4 C 69 % 1016,5 hPa 0,0 mm 0,0 km/h (0 Bft) S-SO 157 9,6 C 0,0 km/h (0 Bft)
12.09.2015 19:55 14,9 C 15,0 C 70 % 1016,5 hPa 0,0 mm 0,0 km/h (0 Bft) O-SO 112 9,5 C 0,0 km/h (0 Bft)
12.09.2015 20:00 14,9 C 15,0 C 72 % 1016,5 hPa 0,0 mm 0,0 km/h (0 Bft) S-SO 157 9,9 C 0,0 km/h (0 Bft)
12.09.2015 20:05 15,2 C 15,2 C 71 % 1016,5 hPa 0,0 mm 0,0 km/h (0 Bft) S-SO 157 10,0 C 0,0 km/h (0 Bft)
12.09.2015 20:10 14,7 C 14,8 C 71 % 1016,5 hPa 0,0 mm 0,3 km/h (0 Bft) S-SO 157 9,5 C 0,0 km/h (0 Bft)
12.09.2015 20:15 14,5 C 14,7 C 72 % 1016,4 hPa 0,0 mm 0,3 km/h (0 Bft) S-SO 157 9,5 C 3,6 km/h (1 Bft)
12.09.2015 20:20 14,1 C 14,3 C 72 % 1016,4 hPa 0,0 mm 0,3 km/h (0 Bft) SO 135 9,1 C 0,0 km/h (0 Bft)
12.09.2015 20:25 14,0 C 14,1 C 73 % 1016,4 hPa 0,0 mm 0,3 km/h (0 Bft) SO 135 9,2 C 3,1 km/h (1 Bft)
12.09.2015 20:30 13,7 C 13,8 C 74 % 1016,4 hPa 0,0 mm 0,3 km/h (0 Bft) O-SO 112 9,2 C 0,0 km/h (0 Bft)
12.09.2015 20:35 13,6 C 13,9 C 74 % 1016,4 hPa 0,0 mm 0,3 km/h (0 Bft) O-SO 112 9,1 C 0,0 km/h (0 Bft)
12.09.2015 20:40 13,2 C 13,2 C 74 % 1016,4 hPa 0,0 mm 0,0 km/h (0 Bft) O-SO 112 8,7 C 0,0 km/h (0 Bft)
12.09.2015 20:45 12,9 C 12,8 C 75 % 1016,4 hPa 0,0 mm 0,0 km/h (0 Bft) O-SO 112 8,6 C 0,0 km/h (0 Bft)
12.09.2015 20:50 12,8 C 12,6 C 78 % 1016,4 hPa 0,0 mm 0,0 km/h (0 Bft) O-SO 112 9,1 C 0,0 km/h (0 Bft)
12.09.2015 20:55 12,7 C 12,5 C 78 % 1016,6 hPa 0,0 mm 0,0 km/h (0 Bft) O-SO 112 9,0 C 0,0 km/h (0 Bft)
12.09.2015 21:00 12,6 C 12,3 C 77 % 1016,6 hPa 0,0 mm 0,0 km/h (0 Bft) O-SO 112 8,7 C 0,0 km/h (0 Bft)
12.09.2015 21:05 12,5 C 12,2 C 78 % 1016,6 hPa 0,0 mm 0,0 km/h (0 Bft) S-SO 157 8,8 C 0,0 km/h (0 Bft)
12.09.2015 21:10 12,3 C 12,1 C 78 % 1016,6 hPa 0,0 mm 0,0 km/h (0 Bft) SO 135 8,6 C 0,0 km/h (0 Bft)
12.09.2015 21:15 12,3 C 12,1 C 78 % 1016,5 hPa 0,0 mm 0,0 km/h (0 Bft) SO 135 8,6 C 0,0 km/h (0 Bft)
12.09.2015 21:20 12,0 C 11,9 C 78 % 1016,5 hPa 0,0 mm 0,0 km/h (0 Bft) NW 315 8,3 C 0,0 km/h (0 Bft)
12.09.2015 21:25 11,6 C 11,6 C 78 % 1016,5 hPa 0,0 mm 0,0 km/h (0 Bft) O-NO 67 7,9 C 0,0 km/h (0 Bft)
12.09.2015 21:30 11,5 C 11,4 C 79 % 1016,5 hPa 0,0 mm 0,0 km/h (0 Bft) SO 135 8,0 C 0,0 km/h (0 Bft)
12.09.2015 21:35 11,8 C 11,6 C 81 % 1016,2 hPa 0,0 mm 0,0 km/h (0 Bft) S 180 8,6 C 0,0 km/h (0 Bft)
12.09.2015 21:40 12,1 C 11,9 C 78 % 1016,2 hPa 0,0 mm 0,0 km/h (0 Bft) O-SO 112 8,4 C 2,6 km/h (1 Bft)
12.09.2015 21:45 12,3 C 12,2 C 78 % 1016,2 hPa 0,0 mm 0,3 km/h (0 Bft) O-SO 112 8,6 C 2,6 km/h (1 Bft)
12.09.2015 21:50 12,3 C 12,3 C 78 % 1016,2 hPa 0,0 mm 0,5 km/h (0 Bft) SO 135 8,6 C 0,0 km/h (0 Bft)
12.09.2015 21:55 12,2 C 12,1 C 77 % 1016,1 hPa 0,0 mm 0,5 km/h (0 Bft) SO 135 8,3 C 0,0 km/h (0 Bft)
12.09.2015 22:00 11,9 C 11,8 C 79 % 1016,1 hPa 0,0 mm 0,0 km/h (0 Bft) NW 315 8,4 C 0,0 km/h (0 Bft)
12.09.2015 22:05 11,3 C 11,2 C 79 % 1016,1 hPa 0,0 mm 0,3 km/h (0 Bft) S-SO 157 7,8 C 0,0 km/h (0 Bft)
12.09.2015 22:06 11,3 C 11,2 C 79 % 1016,1 hPa 0,0 mm 0,3 km/h (0 Bft) S-SO 157 7,8 C 0,0 km/h (0 Bft)
12.09.2015 22:10 11,3 C 11,2 C 79 % 1016,1 hPa 0,0 mm 0,3 km/h (0 Bft) S-SO 157 7,8 C 0,0 km/h (0 Bft)
12.09.2015 22:15 11,4 C 11,2 C 80 % 1016,6 hPa 0,0 mm 0,0 km/h (0 Bft) S 180 8,1 C 0,0 km/h (0 Bft)
12.09.2015 22:20 11,6 C 11,3 C 81 % 1016,6 hPa 0,0 mm 0,0 km/h (0 Bft) W-NW 292 8,5 C 3,4 km/h (1 Bft)
12.09.2015 22:25 11,6 C 11,3 C 81 % 1016,6 hPa 0,0 mm 0,0 km/h (0 Bft) S-SW 202 8,5 C 0,0 km/h (0 Bft)
12.09.2015 22:30 11,9 C 11,5 C 81 % 1016,6 hPa 0,0 mm 0,0 km/h (0 Bft) SO 135 8,7 C 0,0 km/h (0 Bft)
12.09.2015 22:35 12,4 C 12,3 C 77 % 1016,4 hPa 0,0 mm 1,6 km/h (1 Bft) S-SW 202 8,5 C 6,0 km/h (2 Bft)
12.09.2015 22:40 12,7 C 12,6 C 76 % 1016,4 hPa 0,0 mm 4,9 km/h (1 Bft) W-SW 247 8,6 C 0,0 km/h (0 Bft)
12.09.2015 22:45 12,1 C 12,1 C 77 % 1016,4 hPa 0,0 mm 4,7 km/h (1 Bft) S-SO 157 8,2 C 0,0 km/h (0 Bft)
12.09.2015 22:50 11,9 C 12,1 C 77 % 1016,4 hPa 0,0 mm 2,1 km/h (1 Bft) SO 135 8,0 C 3,6 km/h (1 Bft)
12.09.2015 22:55 12,3 C 12,3 C 75 % 1016,8 hPa 0,0 mm 3,1 km/h (1 Bft) S 180 8,0 C 2,8 km/h (1 Bft)
12.09.2015 23:00 11,8 C 12,2 C 77 % 1016,8 hPa 0,0 mm 1,8 km/h (1 Bft) S 180 7,9 C 2,8 km/h (1 Bft)
12.09.2015 23:05 12,2 C 12,5 C 76 % 1016,8 hPa 0,0 mm 2,3 km/h (1 Bft) S 180 8,1 C 6,5 km/h (2 Bft)
12.09.2015 23:10 13,3 C 13,3 C 75 % 1016,8 hPa 0,0 mm 5,7 km/h (1 Bft) S 180 9,0 C 9,8 km/h (2 Bft)
12.09.2015 23:15 14,1 C 14,0 C 74 % 1016,9 hPa 0,0 mm 7,3 km/h (2 Bft) SW 225 9,5 C 13,2 km/h (3 Bft)
12.09.2015 23:20 14,3 C 14,3 C 72 % 1016,9 hPa 0,0 mm 8,3 km/h (2 Bft) S 180 9,3 C 3,1 km/h (1 Bft)
12.09.2015 23:25 14,2 C 14,3 C 71 % 1016,9 hPa 0,0 mm 8,8 km/h (2 Bft) S 180 9,0 C 8,5 km/h (2 Bft)
12.09.2015 23:30 14,2 C 14,4 C 70 % 1016,9 hPa 0,0 mm 7,8 km/h (2 Bft) S 180 8,8 C 11,1 km/h (2 Bft)
12.09.2015 23:35 14,4 C 14,4 C 69 % 1016,9 hPa 0,0 mm 7,8 km/h (2 Bft) S 180 8,8 C 10,9 km/h (2 Bft)
12.09.2015 23:40 13,7 C 14,3 C 69 % 1016,9 hPa 0,0 mm 6,0 km/h (2 Bft) SW 225 8,1 C 10,1 km/h (2 Bft)
12.09.2015 23:45 13,6 C 14,2 C 69 % 1016,9 hPa 0,0 mm 3,9 km/h (1 Bft) S-SW 202 8,0 C 3,6 km/h (1 Bft)
12.09.2015 23:50 12,7 C 14,1 C 70 % 1016,9 hPa 0,0 mm 2,1 km/h (1 Bft) NW 315 7,4 C 0,0 km/h (0 Bft)
12.09.2015 23:55 12,3 C 13,3 C 72 % 1017,1 hPa 0,0 mm 0,8 km/h (0 Bft) NW 315 7,4 C 0,0 km/h (0 Bft)
_ Min-Zeit 06:45 06:45 16:15 22:10 - 22:30 - - 06:45 23:55
Minimum _ 8,1 C 8,0 C 44 % 1016,1 hPa - 0,0 km/h (0 Bft) - - 5,6 C 0,0 km/h (0 Bft)
_ Max-Zeit 15:25 15:05 02:20 12:30 23:55 12:45 - - 10:50 12:30
Maximum _ 23,9 C 28,2 C 89 % 1020,5 hPa 0,0 mm 9,6 km/h
O-NO (2 Bft)
- - 13,6 C 22,3 km/h
O-NO (4 Bft)
Durchschnitt _ 15,2 C 16,9 C 70 % 1018,0 hPa #0,0 mm 2,2 km/h (1 Bft) O-NO - 9,2 C 3,0 km/h (1 Bft)